GFSFLT1_500_rhum_189.txt.gz
RH
39 47 53 49 37 40 40 29 28 35 37 36 41 39 45 48 42 36 37 37 36 38 36 30 26 31 38 47 64 60 50 47
46 37 33 41 54 46 35 33 36 47 54 53 49 44 50 52 46 38 34 33 36 43 35 27 28 36 48 63 69 58 49 51
63 56 47 43 37 35 31 33 55 66 68 59 55 55 54 50 45 48 48 49 50 40 30 30 40 51 63 79 74 60 51 52
54 70 73 62 50 65 66 59 94 88 83 63 57 53 51 49 50 54 56 50 39 34 35 44 55 63 73 84 73 54 48 50
58 73 70 72 76 67 83 95 100 98 87 67 66 62 55 57 58 57 50 41 40 45 49 61 70 80 87 85 62 50 44 51
45 59 71 76 86 98 100 99 96 94 84 73 71 66 60 54 50 49 50 51 55 59 70 85 85 82 89 68 62 50 48 57
48 51 54 58 75 93 99 100 100 100 88 77 73 69 67 65 65 65 67 71 78 82 90 81 78 94 76 68 69 49 58 50
55 55 56 64 63 71 86 93 98 94 86 82 82 82 82 79 80 88 91 93 94 86 87 76 95 90 76 75 55 54 52 43
82 73 73 71 77 75 72 73 73 85 91 95 99 93 90 96 98 98 95 79 76 94 91 99 98 90 77 67 54 56 53 43
73 77 77 75 72 79 80 86 91 94 97 96 88 90 96 95 86 93 96 86 92 100 99 98 96 86 79 65 61 66 50 49
58 65 72 71 70 71 72 80 81 77 84 88 91 92 95 92 81 91 100 94 100 99 97 98 97 94 79 70 74 61 60 54
57 57 64 72 74 76 73 73 84 91 91 94 94 91 83 88 98 98 99 99 99 95 90 95 99 91 80 73 80 74 67 53
57 56 59 60 65 70 78 79 78 85 96 96 94 90 93 98 89 100 98 99 98 86 88 99 96 88 75 77 85 92 75 58
60 52 55 58 58 68 80 82 96 97 93 96 92 82 84 100 99 98 97 99 91 80 88 100 94 84 94 85 89 89 78 68
59 63 70 68 65 70 72 70 73 89 97 99 100 100 99 100 98 91 93 90 82 88 97 98 96 95 86 86 99 92 78 82
92 87 86 86 98 95 97 98 88 87 82 80 82 86 89 85 67 94 100 89 96 99 100 100 100 86 94 100 99 96 93 97
91 90 92 100 99 100 86 91 91 86 93 86 92 78 83 100 100 100 100 100 100 100 100 100 99 100 100 100 100 95 98 94
73 75 74 73 81 96 84 98 100 100 100 100 100 92 100 100 99 99 100 100 100 99 100 100 100 100 100 99 99 100 98 79
40 33 36 42 48 50 85 94 87 99 100 100 98 99 100 99 100 100 100 100 100 100 100 100 100 100 100 100 100 98 89 46

GFSFLT1_500_rhum_192.txt.gz
RH
31 37 55 60 44 70 88 93 77 50 44 38 30 34 37 34 35 35 37 45 50 46 40 39 36 35 36 36 29 30 49 57
49 48 50 50 48 60 75 79 68 64 52 45 33 42 49 47 46 46 52 58 55 43 38 36 36 43 45 35 30 43 57 76
56 61 62 60 56 49 43 40 43 46 42 41 38 35 53 60 64 57 56 56 51 42 50 52 53 50 38 33 46 59 80 83
77 78 73 76 77 74 70 63 69 66 64 75 70 60 72 69 67 60 58 55 52 55 53 53 49 41 37 48 60 84 80 84
78 71 58 64 77 80 76 67 59 70 91 86 90 94 93 84 78 73 63 58 59 57 55 51 45 47 51 60 81 77 75 92
53 45 45 51 61 66 70 72 73 94 84 95 100 96 91 82 79 79 71 61 56 52 52 54 58 64 72 79 86 80 91 92
56 56 55 48 49 54 65 76 100 91 90 98 98 87 94 91 84 80 70 69 71 71 74 76 82 83 87 89 89 97 100 76
78 75 71 66 60 56 58 62 79 96 96 99 98 98 98 96 91 85 85 86 82 85 88 88 86 92 96 97 100 98 80 76
76 92 96 95 92 85 82 76 67 69 84 96 98 99 100 100 96 89 88 91 89 87 92 96 100 100 99 100 98 86 80 72
74 78 81 89 96 96 95 95 98 96 97 95 94 99 99 99 100 96 93 96 96 98 98 100 100 99 99 99 94 84 72 67
66 71 72 75 83 92 100 98 96 95 98 97 98 97 97 96 98 99 99 100 100 100 98 100 100 99 99 96 90 84 84 69
76 77 76 77 80 91 93 93 94 90 91 96 97 98 98 99 100 99 100 99 100 98 99 99 97 98 96 92 92 91 92 84
76 74 80 84 80 82 87 84 82 85 84 79 90 96 96 98 100 97 100 95 98 99 99 98 99 98 92 86 94 99 89 93
75 75 74 74 75 73 75 79 75 76 78 84 88 86 93 100 98 100 100 97 100 100 100 99 97 98 96 98 98 89 89 80
99 99 89 80 73 74 75 71 75 80 77 76 77 82 91 92 94 86 74 96 99 100 99 98 97 99 100 100 100 93 88 86
98 98 99 97 86 71 69 71 69 68 65 59 65 72 78 86 83 84 100 96 100 100 99 99 100 100 100 100 100 98 94 100
100 100 100 100 100 100 92 88 78 65 68 73 78 79 100 90 69 61 69 70 65 75 100 100 100 100 100 100 97 100 100 100
100 100 94 92 98 99 89 75 70 64 69 67 64 64 94 98 96 86 85 91 100 100 100 100 100 100 100 100 100 100 100 100
81 84 80 76 64 51 51 59 48 27 22 27 28 61 77 93 70 62 100 100 100 100 100 100 100 100 100 100 100 100 100 99

GFSFLT1_500_rhum_198.txt.gz
RH
31 28 25 20 24 24 28 31 29 39 57 79 76 59 79 76 92 100 86 62 54 42 35 46 47 45 43 42 43 49 51 48
54 37 29 28 24 22 27 25 27 35 62 68 70 90 94 87 99 100 92 76 62 42 47 67 64 60 56 55 56 63 65 46
51 50 39 43 49 37 33 43 37 50 85 81 85 92 90 94 97 94 84 72 58 51 78 77 68 72 68 65 60 56 49 49
51 53 39 38 65 43 50 51 52 42 53 81 82 77 63 83 88 92 82 82 73 78 79 82 91 87 76 70 67 64 59 60
55 85 52 47 70 65 61 64 64 65 66 52 56 59 64 87 78 72 73 76 82 93 96 96 95 90 80 72 71 66 60 57
63 66 71 65 50 65 66 68 68 68 72 74 69 77 64 68 69 77 89 94 100 100 92 90 86 92 74 70 70 68 65 72
76 97 96 61 55 52 54 60 66 72 85 94 94 79 80 79 91 96 96 97 98 100 94 94 97 88 81 72 72 75 72 73
87 96 98 86 87 68 63 68 76 82 87 71 68 68 71 74 79 94 96 97 96 95 93 98 97 95 92 89 86 87 83 83
98 87 98 95 82 80 96 93 77 80 75 83 81 73 82 79 80 88 96 95 97 98 87 94 98 93 98 97 90 86 89 96
100 100 100 98 91 80 92 96 98 92 85 98 96 90 96 98 85 81 98 95 90 92 97 98 98 98 91 85 96 97 97 98
100 100 100 100 98 94 95 97 94 95 97 100 98 96 96 97 87 88 93 100 98 98 97 92 92 95 97 92 98 98 97 98
98 99 99 98 99 95 97 97 97 96 92 96 100 98 97 97 96 96 97 96 94 99 96 96 98 98 98 99 98 98 98 90
99 99 94 100 99 95 98 98 96 98 97 92 100 98 98 98 97 95 97 98 97 97 96 96 97 98 97 97 99 98 98 97
99 100 100 96 88 97 98 95 97 97 97 96 96 99 98 98 98 96 97 96 97 97 98 96 96 97 97 99 99 97 96 99
100 99 100 100 99 100 100 100 97 98 99 99 95 86 99 93 91 95 94 91 96 98 96 97 97 99 100 100 100 98 98 95
85 80 96 97 99 100 100 100 99 100 99 97 99 100 99 72 60 72 84 95 96 96 93 94 90 91 97 97 97 92 82 98
83 93 78 78 81 98 93 97 98 100 100 100 97 97 92 67 67 74 81 90 96 97 94 86 91 89 78 84 100 100 88 80
34 42 47 41 45 60 92 99 98 91 98 99 98 97 97 91 87 87 78 66 57 59 60 55 59 68 72 75 80 99 100 100
28 40 56 26 24 22 24 24 28 30 57 57 50 79 78 55 40 38 37 34 32 29 29 27 24 26 31 54 82 97 99 96

GFSFLT1_500_rhum_201.txt.gz
RH
45 37 40 43 36 25 23 24 26 28 41 47 64 84 91 78 89 77 93 85 85 90 88 67 58 53 38 48 52 48 47 48
60 42 37 38 39 31 24 22 24 26 28 38 40 55 62 79 96 96 92 98 88 88 88 90 66 56 46 59 58 60 64 63
58 54 44 37 36 39 42 34 25 28 36 49 49 43 57 82 100 99 93 91 93 94 100 86 66 61 61 72 69 80 76 69
68 52 40 40 33 32 41 45 45 46 46 55 55 47 38 57 74 99 96 97 95 93 100 83 73 71 80 89 92 98 90 80
44 58 53 43 48 50 42 46 60 64 56 60 67 69 53 53 63 97 97 96 91 96 100 85 74 82 96 96 95 97 96 88
66 79 56 56 47 51 58 77 91 80 81 73 73 76 78 65 66 84 96 96 96 97 99 92 87 93 97 95 90 96 97 90
77 79 80 70 61 66 71 72 98 98 97 90 76 78 87 93 91 90 98 98 97 97 98 98 95 94 96 95 92 94 98 96
66 97 87 66 84 73 77 86 100 97 98 96 90 82 87 94 97 100 98 99 100 98 98 98 97 98 98 97 91 83 99 100
76 70 84 79 79 69 69 84 83 97 96 82 72 80 88 96 95 94 95 99 100 97 94 95 96 99 98 98 96 95 89 79
94 95 76 74 83 76 80 92 96 94 95 96 78 76 85 86 82 80 91 100 100 96 94 89 86 94 98 98 98 98 94 96
99 99 98 94 96 83 76 100 94 98 96 99 97 97 89 91 85 84 99 100 99 96 96 95 96 95 93 96 97 97 98 98
92 98 97 97 99 96 89 90 82 86 100 87 81 94 91 96 93 93 94 94 99 97 97 97 96 96 98 97 97 96 98 98
95 88 99 92 90 98 98 99 99 96 78 92 99 98 97 96 98 97 97 98 99 99 98 98 97 97 97 97 98 98 98 98
68 85 100 100 90 80 99 94 98 89 84 58 93 100 97 86 98 98 96 96 98 98 98 97 97 98 98 100 98 98 96 99
100 95 100 100 99 100 100 100 99 100 95 94 99 93 73 85 100 98 98 97 96 96 98 98 96 94 93 92 90 94 95 97
68 71 90 98 98 100 100 99 100 99 98 98 98 99 100 100 99 99 100 98 98 98 92 89 93 90 82 83 89 83 88 90
32 30 32 31 35 50 43 49 52 66 97 94 99 100 98 99 100 99 99 99 98 94 93 92 84 82 83 76 71 65 68 72
23 22 20 20 19 20 24 28 40 35 29 62 88 82 77 93 98 99 98 98 97 94 90 83 61 51 41 46 44 46 48 37
16 14 13 13 15 26 42 77 52 37 30 18 23 22 34 22 24 35 39 33 41 62 59 41 32 24 23 26 28 30 29 31